Weather in Taoyuan

Taiwan     24°59′37″N   121°18′03″E
temp.,
°C
wind,
m/s
gust,
m/s
humid.,
%
clouds,
%
prec.,
mm/h
press.,
hPa
HPBL,
m
28 november, sun
sun2823:00+19ene915846 0.0 1021971
02:00+19ene814795 0.0 1019776
05:00+19ene7128345 0.0 1019559
08:00+21ene61077100 0.0 1020540
11:00+24e79604 0.0 1019832
14:00+26e675598 0.0 1016844
17:00+23e687189 0.0 1017466
20:00+21e6107979 0.0 1018451
29 november, mon
mon2923:00+21e588295 0.0 1017393
02:00+21e368392 0.0 1016273
05:00+21e358397 0.0 1016246
08:00+21ene3586100 0.2 1018295
11:00+24ene566776 0.0 1016717
14:00+23ene6774100 0.0 1015615
17:00+22ene69797 0.0 1014572
20:00+21ene58835 0.0 1015402
30 november, tue
tue3023:00+20e238569 0.0 1016104
02:00+20s2388100 0.6 101591
05:00+20ssw128994 0.0 101669
08:00+20n4692100 0.9 1018454
11:00+20n479099 1.7 1019602
14:00+20nne71082100 3.3 1017975
17:00+18ne61080100 0.9 10201173
20:00+16ne71074100 1.3 10221271
1 december, wed
wed123:00+16ene61064100 0.1 10231536
02:00+14ne711563 0.1 10241353
05:00+14ene6105616 0.0 10241489
08:00+15ene7115334 0.0 10251495
11:00+16ne8105042 0.0 10251572
14:00+16ene8105189 0.0 10231553
17:00+15ene8126484 0.0 10231516
20:00+15ene8126493 0.1 10251471
2 december, thu
thu223:00+14ene7127012 0.0 10231208
02:00+14ene712726 0.1 1021981
05:00+15ene6107322 0.1 1022858
08:00+16ene596846 0.1 1022915
11:00+18ene785634 0.0 10211295
14:00+18ne775991 0.0 10201372
17:00+17ne686455 0.0 10201006
20:00+16ene586744 0.1 1022780